Time,TemperatureF,DewpointF,PressureIn,WindDirection,WindDirectionDegrees,WindSpeedMPH,WindSpeedGustMPH,Humidity,HourlyPrecipIn,Conditions,Clouds,dailyrainin,SoftwareType,DateUTC
2013-01-07 00:11:00,41.9,26.9,30.27,SSW,202,10.3,-999.0,55,-99.99,,,0.00,Acu-Link.com,2013-01-07 06:11:00,
2013-01-07 00:26:00,41.2,26.3,30.27,SSW,202,7.8,-999.0,55,-99.99,,,0.00,Acu-Link.com,2013-01-07 06:26:00,
2013-01-07 00:41:00,41.4,26.4,30.27,South,180,7.4,-999.0,55,-99.99,,,0.00,Acu-Link.com,2013-01-07 06:41:00,
2013-01-07 00:57:00,40.5,26.0,30.26,SSE,157,6.3,-999.0,56,-99.99,,,0.00,Acu-Link.com,2013-01-07 06:57:00,
2013-01-07 01:12:00,40.1,26.1,30.25,South,180,5.8,-999.0,57,-99.99,,,0.00,Acu-Link.com,2013-01-07 07:12:00,
2013-01-07 01:27:00,39.0,25.9,30.25,South,180,3.1,-999.0,59,-99.99,,,0.00,Acu-Link.com,2013-01-07 07:27:00,
2013-01-07 01:42:00,37.8,25.5,30.24,SSE,157,4.7,-999.0,61,-99.99,,,0.00,Acu-Link.com,2013-01-07 07:42:00,
2013-01-07 01:57:00,36.0,25.4,30.24,SE,135,4.7,-999.0,65,-99.99,,,0.00,Acu-Link.com,2013-01-07 07:57:00,
2013-01-07 02:12:00,34.0,24.9,30.25,SE,135,2.7,-999.0,69,-99.99,,,0.00,Acu-Link.com,2013-01-07 08:12:00,
2013-01-07 02:27:00,31.8,24.2,30.25,ESE,112,3.1,-999.0,73,-99.99,,,0.00,Acu-Link.com,2013-01-07 08:27:00,
2013-01-07 02:42:00,30.4,23.7,30.25,ESE,112,3.8,-999.0,76,-99.99,,,0.00,Acu-Link.com,2013-01-07 08:42:00,
2013-01-07 02:57:00,29.8,23.5,30.25,SE,135,2.7,-999.0,77,-99.99,,,0.00,Acu-Link.com,2013-01-07 08:57:00,
2013-01-07 03:12:00,29.7,23.7,30.25,SE,135,2.7,-999.0,78,-99.99,,,0.00,Acu-Link.com,2013-01-07 09:12:00,
2013-01-07 03:27:00,28.4,23.0,30.25,NNW,337,0.0,-999.0,80,-99.99,,,0.00,Acu-Link.com,2013-01-07 09:27:00,
2013-01-07 03:42:00,27.3,23.1,30.24,WNW,292,0.0,-999.0,84,-99.99,,,0.00,Acu-Link.com,2013-01-07 09:42:00,
2013-01-07 03:58:00,26.4,22.5,30.24,West,270,0.0,-999.0,85,-99.99,,,0.00,Acu-Link.com,2013-01-07 09:58:00,
2013-01-07 04:13:00,25.9,23.4,30.23,ESE,112,0.0,-999.0,90,-99.99,,,0.00,Acu-Link.com,2013-01-07 10:13:00,
2013-01-07 04:28:00,26.6,24.1,30.23,East,90,0.0,-999.0,90,-99.99,,,0.00,Acu-Link.com,2013-01-07 10:28:00,
2013-01-07 04:43:00,26.4,23.4,30.23,NW,315,0.0,-999.0,88,-99.99,,,0.00,Acu-Link.com,2013-01-07 10:43:00,
2013-01-07 04:58:00,26.1,23.0,30.22,East,90,0.0,-999.0,88,-99.99,,,0.00,Acu-Link.com,2013-01-07 10:58:00,
2013-01-07 05:13:00,26.1,23.8,30.22,SSE,157,0.0,-999.0,91,-99.99,,,0.00,Acu-Link.com,2013-01-07 11:13:00,
2013-01-07 05:28:00,26.1,23.0,30.22,NW,315,0.0,-999.0,88,-99.99,,,0.00,Acu-Link.com,2013-01-07 11:28:00,
2013-01-07 05:43:00,25.7,23.2,30.22,NNE,22,0.0,-999.0,90,-99.99,,,0.00,Acu-Link.com,2013-01-07 11:43:00,
2013-01-07 05:58:00,25.5,23.5,30.22,East,90,0.0,-999.0,92,-99.99,,,0.00,Acu-Link.com,2013-01-07 11:58:00,
2013-01-07 06:13:00,25.3,23.6,30.22,ESE,112,0.0,-999.0,93,-99.99,,,0.00,Acu-Link.com,2013-01-07 12:13:00,
2013-01-07 06:28:00,26.1,24.3,30.22,ESE,112,0.0,-999.0,93,-99.99,,,0.00,Acu-Link.com,2013-01-07 12:28:00,
2013-01-07 06:43:00,26.4,24.2,30.22,ESE,112,0.0,-999.0,91,-99.99,,,0.00,Acu-Link.com,2013-01-07 12:43:00,
2013-01-07 06:58:00,26.6,24.1,30.21,ESE,112,0.0,-999.0,90,-99.99,,,0.00,Acu-Link.com,2013-01-07 12:58:00,
2013-01-07 07:13:00,26.6,24.1,30.22,ESE,112,0.0,-999.0,90,-99.99,,,0.00,Acu-Link.com,2013-01-07 13:13:00,
2013-01-07 07:28:00,26.8,24.2,30.22,ESE,112,0.0,-999.0,90,-99.99,,,0.00,Acu-Link.com,2013-01-07 13:28:00,
2013-01-07 07:43:00,26.6,24.1,30.22,ESE,112,3.1,-999.0,90,-99.99,,,0.00,Acu-Link.com,2013-01-07 13:43:00,
2013-01-07 07:58:00,26.8,24.2,30.22,East,90,4.3,-999.0,90,-99.99,,,0.00,Acu-Link.com,2013-01-07 13:58:00,
2013-01-07 08:14:00,26.6,23.8,30.22,ESE,112,2.7,-999.0,89,-99.99,,,0.00,Acu-Link.com,2013-01-07 14:14:00,
2013-01-07 08:29:00,27.0,24.2,30.22,ESE,112,3.8,-999.0,89,-99.99,,,0.00,Acu-Link.com,2013-01-07 14:29:00,
2013-01-07 08:44:00,27.5,24.4,30.22,ESE,112,2.2,-999.0,88,-99.99,,,0.00,Acu-Link.com,2013-01-07 14:44:00,
2013-01-07 08:59:00,29.3,25.6,30.23,ESE,112,2.7,-999.0,86,-99.99,,,0.00,Acu-Link.com,2013-01-07 14:59:00,
2013-01-07 09:14:00,30.6,26.6,30.23,ESE,112,4.3,-999.0,85,-99.99,,,0.00,Acu-Link.com,2013-01-07 15:14:00,
2013-01-07 09:29:00,31.6,26.8,30.24,ESE,112,4.3,-999.0,82,-99.99,,,0.00,Acu-Link.com,2013-01-07 15:29:00,
2013-01-07 09:44:00,32.7,27.8,30.24,ESE,112,3.8,-999.0,82,-99.99,,,0.00,Acu-Link.com,2013-01-07 15:44:00,
2013-01-07 09:59:00,34.5,28.4,30.24,ESE,112,4.3,-999.0,78,-99.99,,,0.00,Acu-Link.com,2013-01-07 15:59:00,
2013-01-07 10:14:00,36.1,28.7,30.25,ESE,112,3.8,-999.0,74,-99.99,,,0.00,Acu-Link.com,2013-01-07 16:14:00,
2013-01-07 10:29:00,38.8,28.8,30.24,ESE,112,4.7,-999.0,67,-99.99,,,0.00,Acu-Link.com,2013-01-07 16:29:00,
2013-01-07 10:44:00,39.2,29.5,30.25,ESE,112,5.1,-999.0,68,-99.99,,,0.00,Acu-Link.com,2013-01-07 16:44:00,
2013-01-07 10:59:00,39.6,29.9,30.24,ESE,112,7.4,-999.0,68,-99.99,,,0.00,Acu-Link.com,2013-01-07 16:59:00,
2013-01-07 11:14:00,39.9,30.6,30.23,SSE,157,6.7,-999.0,69,-99.99,,,0.00,Acu-Link.com,2013-01-07 17:14:00,
2013-01-07 11:29:00,41.4,31.6,30.21,SSE,157,6.3,-999.0,68,-99.99,,,0.00,Acu-Link.com,2013-01-07 17:29:00,
2013-01-07 11:44:00,42.6,30.9,30.20,SSE,157,9.4,-999.0,63,-99.99,,,0.00,Acu-Link.com,2013-01-07 17:44:00,
2013-01-07 11:59:00,44.4,31.0,30.20,SSE,157,6.3,-999.0,59,-99.99,,,0.00,Acu-Link.com,2013-01-07 17:59:00,
2013-01-07 12:14:00,45.0,31.5,30.18,South,180,4.7,-999.0,59,-99.99,,,0.00,Acu-Link.com,2013-01-07 18:14:00,
2013-01-07 12:30:00,46.6,30.8,30.16,SSW,202,9.4,-999.0,54,-99.99,,,0.00,Acu-Link.com,2013-01-07 18:30:00,
2013-01-07 12:45:00,46.8,30.1,30.15,SE,135,11.0,-999.0,52,-99.99,,,0.00,Acu-Link.com,2013-01-07 18:45:00,
2013-01-07 13:00:00,46.9,30.2,30.14,SE,135,11.4,-999.0,52,-99.99,,,0.00,Acu-Link.com,2013-01-07 19:00:00,
2013-01-07 13:15:00,46.8,30.1,30.13,South,180,8.3,-999.0,52,-99.99,,,0.00,Acu-Link.com,2013-01-07 19:15:00,
2013-01-07 13:30:00,47.5,30.3,30.12,South,180,9.4,-999.0,51,-99.99,,,0.00,Acu-Link.com,2013-01-07 19:30:00,
2013-01-07 13:45:00,48.2,30.4,30.11,South,180,7.4,-999.0,50,-99.99,,,0.00,Acu-Link.com,2013-01-07 19:45:00,
2013-01-07 14:00:00,48.2,30.4,30.10,SSW,202,7.4,-999.0,50,-99.99,,,0.00,Acu-Link.com,2013-01-07 20:00:00,
2013-01-07 14:15:00,48.6,30.3,30.10,ESE,112,8.9,-999.0,49,-99.99,,,0.00,Acu-Link.com,2013-01-07 20:15:00,
2013-01-07 14:30:00,49.3,30.9,30.09,SSE,157,9.4,-999.0,49,-99.99,,,0.00,Acu-Link.com,2013-01-07 20:30:00,
2013-01-07 14:45:00,48.9,29.6,30.08,SSE,157,7.8,-999.0,47,-99.99,,,0.00,Acu-Link.com,2013-01-07 20:45:00,
2013-01-07 15:00:00,48.9,29.6,30.08,South,180,9.8,-999.0,47,-99.99,,,0.00,Acu-Link.com,2013-01-07 21:00:00,
2013-01-07 15:15:00,50.0,30.6,30.08,South,180,7.4,-999.0,47,-99.99,,,0.00,Acu-Link.com,2013-01-07 21:15:00,
2013-01-07 15:30:00,50.0,30.0,30.08,ESE,112,10.3,-999.0,46,-99.99,,,0.00,Acu-Link.com,2013-01-07 21:30:00,
2013-01-07 15:45:00,50.2,29.7,30.08,South,180,7.8,-999.0,45,-99.99,,,0.00,Acu-Link.com,2013-01-07 21:45:00,
2013-01-07 16:00:00,51.1,29.9,30.08,SSW,202,4.7,-999.0,44,-99.99,,,0.00,Acu-Link.com,2013-01-07 22:00:00,
2013-01-07 16:15:00,50.0,29.5,30.07,South,180,6.7,-999.0,45,-99.99,,,0.00,Acu-Link.com,2013-01-07 22:15:00,
2013-01-07 16:30:00,49.5,28.5,30.07,SSW,202,5.8,-999.0,44,-99.99,,,0.00,Acu-Link.com,2013-01-07 22:30:00,
2013-01-07 16:46:00,49.3,29.4,30.07,South,180,5.8,-999.0,46,-99.99,,,0.00,Acu-Link.com,2013-01-07 22:46:00,
2013-01-07 17:01:00,48.9,29.1,30.06,South,180,7.8,-999.0,46,-99.99,,,0.00,Acu-Link.com,2013-01-07 23:01:00,
2013-01-07 17:16:00,48.2,29.4,30.06,South,180,6.3,-999.0,48,-99.99,,,0.00,Acu-Link.com,2013-01-07 23:16:00,
2013-01-07 17:31:00,47.5,29.3,30.07,ESE,112,4.3,-999.0,49,-99.99,,,0.00,Acu-Link.com,2013-01-07 23:31:00,
2013-01-07 17:46:00,46.9,29.3,30.07,SSE,157,5.1,-999.0,50,-99.99,,,0.00,Acu-Link.com,2013-01-07 23:46:00,
2013-01-07 18:01:00,45.7,29.1,30.06,ESE,112,5.1,-999.0,52,-99.99,,,0.00,Acu-Link.com,2013-01-08 00:01:00,
2013-01-07 18:16:00,44.8,29.2,30.06,ESE,112,5.1,-999.0,54,-99.99,,,0.00,Acu-Link.com,2013-01-08 00:16:00,
2013-01-07 18:31:00,44.2,29.1,30.05,SE,135,5.1,-999.0,55,-99.99,,,0.00,Acu-Link.com,2013-01-08 00:31:00,
2013-01-07 18:46:00,44.1,29.4,30.06,ESE,112,5.8,-999.0,56,-99.99,,,0.00,Acu-Link.com,2013-01-08 00:46:00,
2013-01-07 19:01:00,43.5,28.9,30.06,ESE,112,4.7,-999.0,56,-99.99,,,0.00,Acu-Link.com,2013-01-08 01:01:00,
2013-01-07 19:16:00,43.2,29.0,30.06,ESE,112,5.1,-999.0,57,-99.99,,,0.00,Acu-Link.com,2013-01-08 01:16:00,
2013-01-07 19:31:00,42.8,29.1,30.05,SSE,157,4.7,-999.0,58,-99.99,,,0.00,Acu-Link.com,2013-01-08 01:31:00,
2013-01-07 19:46:00,42.6,28.9,30.05,SSE,157,5.8,-999.0,58,-99.99,,,0.00,Acu-Link.com,2013-01-08 01:46:00,
2013-01-07 20:01:00,42.4,28.7,30.05,SE,135,6.7,-999.0,58,-99.99,,,0.00,Acu-Link.com,2013-01-08 02:01:00,
2013-01-07 20:16:00,41.7,28.9,30.05,ESE,112,5.8,-999.0,60,-99.99,,,0.00,Acu-Link.com,2013-01-08 02:16:00,
2013-01-07 20:31:00,42.3,29.4,30.05,SE,135,5.8,-999.0,60,-99.99,,,0.00,Acu-Link.com,2013-01-08 02:31:00,
2013-01-07 20:46:00,41.4,29.3,30.05,SSE,157,5.8,-999.0,62,-99.99,,,0.00,Acu-Link.com,2013-01-08 02:46:00,
2013-01-07 21:01:00,40.6,29.4,30.05,ESE,112,6.3,-999.0,64,-99.99,,,0.00,Acu-Link.com,2013-01-08 03:01:00,
2013-01-07 21:17:00,41.2,29.9,30.06,SSE,157,5.8,-999.0,64,-99.99,,,0.00,Acu-Link.com,2013-01-08 03:17:00,
2013-01-07 21:32:00,41.0,29.8,30.05,SE,135,7.4,-999.0,64,-99.99,,,0.00,Acu-Link.com,2013-01-08 03:32:00,
2013-01-07 21:47:00,39.7,29.7,30.05,ESE,112,4.7,-999.0,67,-99.99,,,0.00,Acu-Link.com,2013-01-08 03:47:00,
2013-01-07 22:02:00,39.4,29.7,30.04,SSE,157,4.3,-999.0,68,-99.99,,,0.00,Acu-Link.com,2013-01-08 04:02:00,
2013-01-07 22:17:00,38.5,29.6,30.04,ESE,112,3.1,-999.0,70,-99.99,,,0.00,Acu-Link.com,2013-01-08 04:17:00,
2013-01-07 22:32:00,37.0,28.9,30.04,SSE,157,4.7,-999.0,72,-99.99,,,0.00,Acu-Link.com,2013-01-08 04:32:00,
2013-01-07 22:47:00,36.5,29.0,30.04,ESE,112,3.1,-999.0,74,-99.99,,,0.00,Acu-Link.com,2013-01-08 04:47:00,
2013-01-07 23:17:00,36.7,29.5,30.04,SSE,157,4.7,-999.0,75,-99.99,,,0.00,Acu-Link.com,2013-01-08 05:17:00,
2013-01-07 23:32:00,36.9,29.7,30.04,SE,135,4.3,-999.0,75,-99.99,,,0.00,Acu-Link.com,2013-01-08 05:32:00,
2013-01-07 23:47:00,36.7,29.8,30.03,ESE,112,3.8,-999.0,76,-99.99,,,0.00,Acu-Link.com,2013-01-08 05:47:00,